Wind_Speed
46 46 47 47 47 47 48 47 47 46 45 45 45 46 45 45 45 44 44 44 45 46 46 46 46 46 45 45 44 44 44 43 43 42 42 42 42 41
46 46 47 47 47 46 46 46 46 45 44 44 45 45 45 44 44 44 44 44 44 45 45 45 45 45 45 45 44 43 42 42 42 41 40 40 41 42
48 47 46 45 46 46 45 44 44 45 44 43 44 45 44 43 43 43 44 43 43 44 44 45 45 45 44 44 43 42 42 42 42 41 39 39 40 41
47 47 45 44 45 45 45 46 46 46 45 44 43 43 43 43 43 43 43 43 43 43 43 43 43 43 43 41 41 41 41 40 40 40 39 38 38 37
45 44 44 43 43 44 44 44 45 45 45 44 42 41 41 41 41 41 42 42 42 42 41 42 42 41 40 39 39 39 38 38 38 38 37 36 34 33
43 43 43 43 43 42 42 42 42 43 42 41 40 39 39 39 39 40 40 41 41 40 40 40 40 39 38 37 38 37 37 36 35 35 34 33 30 30
42 42 42 43 43 42 41 40 40 39 39 38 38 38 38 38 39 40 40 40 40 39 39 39 38 37 37 36 36 36 34 33 31 30 30 30 29 28
41 42 42 42 42 42 41 39 38 38 37 37 37 37 37 38 38 39 38 37 37 37 37 36 37 36 35 35 34 33 31 29 29 29 28 27 27 26
41 40 40 41 41 40 39 38 37 37 37 37 36 37 37 37 36 36 36 36 35 36 36 35 35 34 33 32 31 30 28 28 28 27 26 26 26 25
40 40 39 38 38 38 38 39 39 38 37 36 36 36 36 36 36 35 35 35 35 35 34 33 33 33 31 30 28 28 28 28 27 27 26 25 25 25
38 37 37 37 37 37 38 38 38 37 36 35 35 36 36 36 35 35 34 33 33 32 32 32 31 31 29 28 29 28 28 27 25 25 25 25 24 23
36 36 36 35 35 36 36 35 35 36 35 35 35 34 34 34 33 32 32 31 31 30 30 29 29 28 27 27 27 27 26 25 24 23 23 23 23 22
34 34 33 33 33 33 34 34 34 34 34 33 33 33 32 32 30 30 30 30 29 29 28 28 27 25 25 24 24 24 23 23 22 21 21 21 21 21
32 32 32 31 32 33 33 32 32 31 31 31 31 30 29 28 28 28 28 27 27 26 26 25 25 24 23 24 23 22 22 21 20 19 19 19 19 19
30 30 30 30 30 31 30 30 30 30 29 29 28 27 26 26 25 25 25 24 23 23 22 22 22 21 21 21 21 20 20 20 19 18 18 17 17 18
27 27 28 28 29 28 28 28 28 27 26 25 25 24 24 24 23 23 22 21 21 21 20 19 19 19 18 19 19 18 18 17 16 16 17 17 17 17
24 24 25 25 25 25 26 25 23 22 22 22 22 23 22 22 22 21 20 19 18 18 17 17 17 16 15 15 15 15 14 14 15 15 15 15 16 16
23 23 23 24 24 23 23 22 21 20 20 20 21 22 22 21 20 19 18 17 16 16 15 15 15 14 13 13 13 14 14 14 14 15 14 15 15 16
23 23 22 22 23 22 21 19 19 20 20 20 20 20 19 19 17 17 17 16 15 14 14 13 13 13 13 13 13 13 13 13 14 14 14 14 14 14
22 21 21 21 21 20 20 19 19 18 18 19 18 18 17 17 16 15 15 15 14 14 14 13 13 13 13 12 12 12 13 13 13 14 14 14 14 14
20 20 19 19 19 19 19 18 18 17 16 16 17 17 16 16 15 14 14 14 13 13 13 13 12 12 12 12 12 12 13 13 12 13 13 12 12 12
18 18 18 18 18 18 17 16 16 16 16 16 16 16 15 15 15 14 13 12 12 12 12 12 12 12 12 11 11 12 12 11 11 11 11 11 12 11
16 16 16 16 16 16 16 16 15 16 15 15 15 15 15 15 14 13 12 12 11 11 11 11 11 11 12 11 11 11 10 10 9 9 9 10 10 9
Wind_Direction
269 269 270 272 275 277 277 277 277 278 279 279 279 280 281 282 283 283 283 283 283 284 285 284 285 286 287 288 287 286 286 286 286 285 286 285 284 284
268 268 270 272 274 276 276 276 277 278 279 279 280 281 281 281 281 281 283 284 284 285 285 285 286 287 288 287 286 286 286 286 286 286 285 285 285 285
270 270 270 271 273 274 275 276 277 278 279 280 281 280 280 281 281 282 283 284 285 286 286 286 287 287 287 286 286 286 286 286 286 285 284 285 285 286
271 271 271 272 274 275 276 276 277 279 279 280 280 279 279 280 282 283 285 285 286 286 287 287 287 287 287 285 285 286 286 287 286 285 287 286 285 285
270 271 272 273 275 275 276 277 278 279 279 279 278 278 279 281 282 284 286 287 287 287 288 288 288 286 285 284 286 287 287 287 286 287 289 288 285 283
270 271 272 274 274 275 276 277 278 278 278 278 277 278 279 281 283 286 287 288 288 288 289 290 290 287 285 285 286 286 286 286 287 288 288 287 285 284
268 269 271 273 274 275 276 277 278 278 278 277 277 278 279 281 283 285 286 288 288 289 290 291 290 288 286 286 287 286 287 286 287 288 289 287 284 283
268 269 270 272 273 275 276 277 277 278 278 278 278 278 280 281 283 285 286 286 286 288 290 290 290 289 287 286 286 286 286 286 286 288 288 286 285 285
268 270 271 272 273 274 274 275 277 278 278 280 280 279 280 281 283 283 284 285 286 288 290 290 290 290 288 287 287 286 285 285 287 287 287 286 285 285
269 269 271 273 274 273 273 273 275 277 279 279 280 279 279 280 281 283 284 285 287 289 290 290 290 291 290 287 286 286 285 285 286 287 286 287 287 284
269 269 271 273 274 273 273 274 275 277 278 278 278 278 278 279 282 284 284 284 285 287 290 292 291 291 289 287 286 286 286 285 285 285 285 286 286 286
270 270 271 273 274 273 273 274 275 276 277 277 277 277 279 281 282 283 283 283 284 286 289 291 292 291 289 287 287 286 286 284 284 284 286 287 286 285
272 271 270 270 271 272 273 273 274 274 274 276 276 277 279 281 282 283 283 284 283 285 286 289 291 292 291 288 287 286 284 283 284 284 286 286 286 284
273 271 268 268 269 271 272 273 273 274 274 275 275 277 278 279 280 281 281 283 284 285 285 287 289 289 288 288 286 284 283 282 283 283 284 284 284 286
272 268 266 266 267 269 270 270 271 273 272 271 272 273 275 277 278 279 279 281 283 284 285 286 287 287 287 287 286 283 282 283 283 282 283 284 282 286
268 266 266 267 266 266 267 268 268 269 269 267 267 269 273 276 277 276 278 281 283 285 286 289 290 290 290 289 287 284 282 283 284 285 283 284 287 289
268 268 269 269 268 268 269 267 265 265 266 266 266 268 271 274 274 276 278 281 283 285 286 289 292 293 292 291 289 287 284 283 285 286 283 284 289 292
269 269 269 269 269 270 269 266 264 265 267 267 268 270 272 271 271 273 275 276 280 281 282 285 289 290 292 293 294 293 290 286 287 288 284 287 290 293
269 269 268 269 268 266 264 263 264 265 265 266 267 268 269 268 268 270 272 272 275 278 281 284 287 288 292 295 296 295 295 290 285 285 285 288 292 294
269 268 268 268 265 262 262 263 264 264 263 262 263 263 264 264 265 269 270 270 272 276 280 282 286 289 293 294 293 294 296 294 289 284 283 286 290 295
267 267 267 265 260 259 260 261 260 259 259 257 256 258 261 262 262 264 266 269 272 277 281 282 284 287 289 288 290 294 296 295 294 291 285 283 287 292
265 264 262 259 256 256 258 257 255 254 254 252 253 254 255 257 260 262 265 270 272 277 282 283 282 283 282 281 287 294 296 295 295 296 291 286 285 287
264 262 259 255 252 253 255 253 252 251 250 249 251 250 251 254 259 258 263 269 272 278 285 286 282 279 276 278 286 292 295 298 298 300 300 297 292 288
Height
5647 5647 5646 5646 5645 5644 5643 5642 5641 5642 5643 5643 5641 5638 5635 5633 5631 5629 5628 5626 5624 5622 5620 5618 5615 5613 5611 5608 5606 5603 5601 5598 5595 5593 5591 5588 5585 5583
5634 5634 5634 5633 5633 5632 5631 5629 5628 5628 5629 5630 5628 5626 5624 5621 5619 5617 5616 5614 5612 5610 5608 5605 5603 5601 5598 5596 5594 5591 5589 5587 5584 5581 5579 5576 5573 5571
5621 5621 5621 5620 5620 5619 5618 5617 5617 5616 5616 5617 5616 5614 5612 5610 5608 5606 5605 5603 5601 5599 5596 5594 5592 5589 5587 5584 5582 5580 5577 5575 5572 5570 5567 5565 5562 5560
5609 5609 5609 5608 5608 5607 5607 5606 5605 5604 5603 5604 5604 5602 5601 5599 5597 5595 5594 5592 5590 5588 5585 5582 5580 5577 5575 5573 5571 5568 5566 5564 5561 5559 5556 5554 5552 5549
5597 5597 5597 5597 5597 5596 5595 5594 5593 5592 5591 5592 5592 5591 5590 5588 5586 5585 5583 5581 5579 5577 5574 5572 5569 5566 5564 5562 5560 5558 5555 5553 5551 5548 5545 5542 5540 5539
5586 5586 5586 5586 5586 5585 5584 5583 5582 5581 5580 5580 5580 5580 5579 5577 5576 5575 5573 5571 5569 5566 5564 5561 5558 5556 5553 5552 5550 5547 5545 5543 5540 5538 5535 5533 5531 5530
5575 5575 5575 5575 5574 5574 5574 5573 5572 5571 5570 5570 5570 5569 5568 5567 5566 5565 5563 5561 5559 5557 5555 5552 5549 5546 5543 5541 5539 5537 5535 5533 5531 5529 5527 5525 5523 5522
5564 5565 5565 5564 5564 5563 5562 5562 5562 5561 5561 5560 5560 5559 5558 5557 5556 5554 5553 5552 5550 5549 5545 5543 5540 5537 5534 5532 5530 5528 5527 5525 5523 5521 5520 5518 5516 5515
5554 5554 5554 5554 5553 5553 5553 5552 5552 5551 5551 5551 5550 5549 5549 5548 5546 5545 5543 5542 5541 5539 5536 5534 5531 5528 5525 5523 5521 5520 5519 5517 5516 5514 5513 5511 5509 5508
5543 5544 5544 5543 5543 5543 5543 5543 5542 5542 5541 5541 5541 5540 5539 5538 5536 5535 5534 5533 5531 5529 5527 5525 5522 5520 5517 5515 5513 5512 5511 5510 5509 5507 5505 5504 5503 5502
5533 5533 5533 5533 5533 5533 5533 5533 5533 5532 5532 5531 5531 5530 5529 5529 5527 5526 5525 5524 5522 5521 5518 5516 5514 5511 5509 5508 5506 5505 5504 5503 5502 5500 5499 5498 5496 5496
5523 5523 5523 5523 5523 5523 5523 5523 5523 5523 5523 5522 5522 5521 5520 5519 5518 5517 5516 5515 5514 5513 5511 5508 5506 5504 5503 5501 5499 5498 5497 5496 5495 5494 5493 5491 5490 5490
5513 5513 5513 5513 5514 5514 5514 5514 5514 5514 5514 5513 5513 5512 5511 5511 5510 5509 5508 5507 5506 5505 5503 5501 5499 5497 5496 5496 5494 5492 5491 5490 5490 5489 5488 5486 5486 5485
5503 5503 5504 5504 5504 5505 5505 5505 5505 5505 5504 5504 5504 5504 5503 5503 5502 5501 5501 5500 5498 5497 5496 5495 5493 5491 5490 5489 5488 5487 5486 5485 5485 5484 5483 5482 5481 5480
5493 5494 5494 5495 5495 5495 5496 5496 5495 5496 5496 5496 5496 5496 5496 5496 5496 5495 5494 5494 5493 5492 5490 5489 5487 5486 5484 5484 5483 5482 5482 5481 5480 5479 5478 5477 5477 5476
5484 5484 5485 5486 5486 5487 5487 5487 5487 5488 5488 5489 5490 5490 5490 5490 5490 5490 5489 5488 5488 5486 5485 5483 5482 5481 5480 5479 5478 5477 5477 5476 5475 5475 5474 5473 5473 5472
5476 5477 5477 5478 5478 5479 5479 5480 5480 5481 5482 5483 5484 5484 5484 5485 5485 5484 5484 5483 5483 5481 5480 5479 5477 5476 5475 5475 5474 5473 5473 5472 5471 5471 5470 5469 5468 5467
5468 5469 5470 5470 5471 5472 5472 5473 5474 5475 5476 5477 5478 5478 5479 5479 5479 5480 5479 5479 5478 5477 5476 5475 5474 5473 5472 5471 5471 5470 5469 5468 5468 5466 5466 5465 5465 5463
5461 5462 5463 5463 5464 5465 5466 5466 5468 5469 5470 5471 5472 5473 5473 5474 5474 5475 5474 5474 5473 5473 5472 5471 5470 5470 5469 5469 5468 5466 5466 5464 5463 5462 5462 5462 5461 5460
5454 5455 5455 5456 5457 5458 5459 5460 5462 5463 5464 5465 5466 5467 5468 5469 5470 5470 5470 5470 5469 5469 5468 5468 5467 5466 5466 5465 5464 5463 5462 5461 5460 5459 5458 5457 5457 5456
5447 5448 5449 5450 5451 5452 5453 5454 5456 5457 5458 5460 5461 5462 5464 5464 5465 5466 5466 5466 5465 5465 5465 5464 5463 5463 5462 5461 5461 5460 5459 5457 5456 5455 5454 5454 5453 5452
5440 5442 5443 5444 5445 5446 5447 5448 5450 5452 5453 5455 5456 5458 5459 5460 5461 5461 5462 5462 5462 5461 5461 5460 5459 5459 5458 5458 5457 5457 5456 5454 5453 5452 5451 5451 5450 5449
5435 5436 5437 5438 5439 5440 5441 5443 5445 5447 5448 5450 5452 5453 5454 5455 5456 5457 5458 5458 5458 5458 5457 5457 5456 5455 5455 5455 5454 5453 5452 5451 5450 5449 5449 5448 5447 5446